Weather in Nikolayevka

Russia / Primorsky Krai     43°05′21″N   133°12′33″E
temp.,
°C
wind,
m/s
gust,
m/s
humid.,
%
clouds,
%
prec.,
mm/h
press.,
hPa
HPBL,
m
16 april, fri
fri1601:00+4se2179100 0.0 101916
04:00+3se2289100 0.0 101832
07:00+4se2793100 0.0 1017316
10:00+7sse51167100 0.0 10171035
13:00+9sse7115757 0.0 10151104
16:00+8se7116541 0.0 10131054
19:00+6se41390100 0.3 1011730
22:00+6sse2494100 1.2 1012241
17 april, sat
sat1701:00+5sse129694 0.3 1011216
04:00+4sse019655 0.3 101273
07:00+3ene11910 0.0 101310
10:00+10sw13495 0.0 1014621
13:00+13ssw232824 0.0 10121955
16:00+13s323278 0.0 10101773
19:00+9sse25455 0.0 1010396
22:00+7ne2258100 0.0 100931
18 april, sun
sun1801:00+6ne2157100 0.0 100722
04:00+5n3464100 0.0 100494
07:00+5n3660100 0.0 1003148
10:00+10n71637100 0.0 10021654
13:00+13n81435100 0.0 10012061
16:00+14n8143444 0.0 10002420
19:00+11nnw81544100 0.0 10021423
22:00+9n61448100 0.0 10041088
19 april, mon
mon1901:00+7nnw3115692 0.0 1004490
04:00+5nnw25690 0.0 1004106
07:00+4nnw38740 0.0 1005237
10:00+12nnw613390 0.0 10041532
13:00+16nnw710300 0.0 10032164
16:00+17nw710275 0.0 10032468
19:00+12sw48423 0.0 1004385
22:00+8w01490 0.0 100710
20 april, tue
tue2001:00+7nnw11533 0.0 100810
04:00+7n21530 0.0 100811
07:00+5n36630 0.0 1012113
10:00+9nnw611370 0.0 1014978
13:00+12n712160 0.0 10151193
16:00+13nnw712150 0.0 10151234
19:00+11nnw511250 0.0 10171000
22:00+6nnw35390 0.0 102096